Regional Weather Roundup
Issued by NWS Midland/Odessa, TX

Skip options and go directly to product.
Home | Oldest Version | Previous Version | Current Version | All | Text Only | Save Text | Print | Product List | Glossary On

Skip product version selection by date and time.   
258
ASUS44 KMAF 230010
RWRMAF
MIDLAND AREA WEATHER ROUNDUP
NATIONAL WEATHER SERVICE MIDLAND TX
600 PM CST SAT NOV 22 2014

...IN SOUTHWEST TEXAS AND SOUTHEAST NEW MEXICO...

CITY           SKY/WX    TMP DP  RH WIND       PRES   REMARKS
ALPINE         PTCLDY    58  36  44 W14G20    29.96S
ANDREWS        FAIR      60  54  82 S5        29.80R
ARTESIA        NOT AVBL
BIG SPRING     PTCLDY    61  56  82 E6        29.82R
CARLSBAD       CLEAR     65  25  22 W21       29.80S
DRYDEN           N/A     68  38  33 W8        29.79R
FORT STOCKTON  CLEAR     63  37  38 W3        29.83S
GUAD PASS      CLEAR     54  29  38 SW28G38   29.92S
HOBBS          CLEAR     59  32  36 SW7       29.82R
MARFA          CLEAR     57  30  35 W13       29.96S
MIDLAND AIRPK  PTCLDY    63  52  67 CALM      29.80R
MIDLAND INTL   PTCLDY    63  56  78 CALM      29.79R
ODESSA         PTCLDY    64  51  62 E3        29.80R
PECOS          CLEAR     66  33  29 W13       29.81R
PRESIDIO       FAIR      68  37  31 W9        29.89S
SEMINOLE       CLEAR     62  32  32 W6        29.81R
SNYDER         CLOUDY    54  52  94 SE5       29.81R
WINK           CLEAR     66  32  28 W6        29.79S
$$
...OTHER STATIONS IN TEXAS...

CITY           SKY/WX    TMP DP  RH WIND       PRES   REMARKS
ABILENE        LGT RAIN  55  54  96 E31G37    29.76F
AMARILLO       CLEAR     56  21  25 S9        29.69F
AUSTIN         CLOUDY    64  64 100 NE7       29.76F
BROWNSVILLE    CLEAR     74  70  87 SE13      29.74F
CORPUS CHRISTI CLOUDY    73  69  87 S12       29.76R
DALLAS FTW     RAIN      59  59 100 S9        29.85R FOG
DEL RIO        CLOUDY    69  47  45 N7        29.75F
EL PASO        PTCLDY    64  26  23 W14G23    29.91F
HOUSTON INT    LGT RAIN  67  66  97 SE17      29.82F FOG
LUBBOCK        MOCLDY    59  48  67 S10       29.75S
SAN ANGELO     CLOUDY    59  55  87 NE13      29.81R
SAN ANTONIO    MOCLDY    72  66  81 SE7       29.75R
WACO           LGT RAIN  61  60  97 SE5       29.82F
WICHITA FALLS  NOT AVBL
$$
...OTHER LOCATIONS IN NEW MEXICO...

CITY           SKY/WX    TMP DP  RH WIND       PRES   REMARKS
ALAMAGORDO     CLEAR     59  19  21 CALM      29.90F
ALBUQUERQUE    MOCLDY    54  18  24 S5        29.90S
CANNON AFB     CLEAR     68  16  13 W20G29    29.79F
CLOVIS         CLEAR     59  16  18 W16G22    29.74F
HOLLOMAN AFB   CLEAR     62  22  21 CALM      29.88F
ROSWELL        CLEAR     64  19  17 W13       29.79F
RUIDOSO        PTCLDY    46  14  27 W15G22    29.93F
SANTA FE       PTCLDY    48   7  18 NW10      29.90R
TRUTH OR CONSE CLEAR     60  21  22 S8        29.89F
TUCUMCARI        N/A     61  17  18 SW18      29.66F
$$

USA.gov is the U.S. government's official web portal to all federal, state and local government web resources and services.